Weather History for Warroad, MN

Change the Weather History Date:

Thursday, March 6, 2014

  Actual Average Record
Temperature  
Mean Temperature 24 °F -  
Max Temperature 28 °F 30 °F 48 °F (1987)
Min Temperature 19 °F 6 °F -30 °F (1955)
Degree Days  
Heating Degree Days 42    
Moisture  
Dew Point 18 °F    
Average Humidity 79    
Maximum Humidity 93    
Minimum Humidity 74    
Precipitation  
Precipitation 0.12 in - - ()
Sea Level Pressure  
Sea Level Pressure 29.80 in    
Wind  
Wind Speed 9 mph (South)    
Max Wind Speed 15 mph    
Max Gust Speed 22 mph    
Visibility 5 miles    
Events Snow    
Averages and records for this station are not official NWS values.
T = Trace of Precipitation, MM = Missing Value Source: NWS Daily Summary

Daily Weather History Graph

Daily Weather History Graph

Search for Another Location

Airport:

Trip Planner

Search our weather history database for the weather conditions in past years. The results will help you decide how hot, cold, wet, or windy it might be!

Date:

Astronomy

Mar. 06, 2014 Rise Set
Actual Time 6:53 AM CST 6:12 PM CST
Civil Twilight 6:21 AM CST 6:44 PM CST
Nautical Twilight 5:45 AM CST 7:21 PM CST
Astronomical Twilight 5:08 AM CST 7:58 PM CST
Moon 9:32 AM CST (3/6) No Moon Set
Length of Visible Light 12h 22m
Length of Day
11h 19m
Waxing Crescent, 32% of the Moon is Illuminated
Mar 6
Waxing Crescent
Mar 8
First Quarter
Mar 16
Full
Mar 23
Last Quarter
Mar 30
New

Hourly Weather History & Observations

Time (CST) Temp. Windchill Dew Point Humidity Pressure Visibility Wind Dir Wind Speed Gust Speed Precip Events Conditions
12:14 AM 19.4 °F 7.2 °F 14.0 °F 80% 30.05 in 10.0 mi SSW 11.5 mph 21.9 mph N/A   Overcast
12:34 AM 19.4 °F 8.6 °F 12.2 °F 74% 30.03 in 10.0 mi South 9.2 mph 18.4 mph N/A   Overcast
12:53 AM 19.4 °F 5.5 °F 12.2 °F 74% 30.02 in 10.0 mi South 15.0 mph 21.9 mph N/A   Overcast
1:14 AM 19.4 °F 5.5 °F 12.2 °F 74% 30.01 in 10.0 mi SSW 15.0 mph 19.6 mph N/A   Overcast
1:34 AM 19.4 °F 7.2 °F 12.2 °F 74% 30.00 in 10.0 mi South 11.5 mph 21.9 mph N/A   Overcast
1:54 AM 19.4 °F 8.6 °F 12.2 °F 74% 29.99 in 10.0 mi South 9.2 mph 19.6 mph N/A   Overcast
2:14 AM 19.4 °F 6.0 °F 12.2 °F 74% 29.98 in 7.0 mi South 13.8 mph 21.9 mph N/A   Overcast
2:34 AM 19.4 °F 7.9 °F 12.2 °F 74% 29.97 in 10.0 mi South 10.4 mph 21.9 mph N/A   Overcast
2:53 AM 19.4 °F 6.6 °F 12.2 °F 74% 29.96 in 10.0 mi South 12.7 mph 16.1 mph N/A   Overcast
3:14 AM 19.4 °F 7.2 °F 12.2 °F 74% 29.95 in 10.0 mi South 11.5 mph 18.4 mph N/A   Overcast
3:34 AM 19.4 °F 8.6 °F 12.2 °F 74% 29.94 in 10.0 mi South 9.2 mph 18.4 mph N/A   Overcast
3:54 AM 19.4 °F 6.6 °F 12.2 °F 74% 29.92 in 10.0 mi South 12.7 mph 16.1 mph N/A   Mostly Cloudy
4:14 AM 19.4 °F 7.9 °F 12.2 °F 74% 29.92 in 10.0 mi South 10.4 mph - N/A   Overcast
4:33 AM 19.4 °F 6.6 °F 12.2 °F 74% 29.91 in 10.0 mi SSE 12.7 mph - N/A   Overcast
4:54 AM 19.4 °F 8.6 °F 12.2 °F 74% 29.91 in 10.0 mi SSE 9.2 mph - N/A   Overcast
5:14 AM 19.4 °F 7.2 °F 12.2 °F 74% 29.89 in 10.0 mi SSE 11.5 mph - N/A   Overcast
5:33 AM 19.4 °F 7.2 °F 12.2 °F 74% 29.88 in 10.0 mi SSE 11.5 mph - N/A   Overcast
5:54 AM 19.4 °F 7.2 °F 12.2 °F 74% 29.87 in 7.0 mi SSE 11.5 mph - N/A Snow Light Snow
6:14 AM 19.4 °F 7.9 °F 12.2 °F 74% 29.86 in 7.0 mi South 10.4 mph - N/A   Scattered Clouds
6:33 AM 19.4 °F 7.9 °F 14.0 °F 80% 29.84 in 10.0 mi SSE 10.4 mph - N/A   Scattered Clouds
6:54 AM 19.4 °F 9.5 °F 14.0 °F 80% 29.84 in 10.0 mi South 8.1 mph - N/A   Mostly Cloudy
7:14 AM 21.2 °F 12.6 °F 14.0 °F 74% 29.83 in 7.0 mi South 6.9 mph - N/A   Scattered Clouds
7:34 AM 21.2 °F 10.9 °F 14.0 °F 74% 29.82 in 5.0 mi SSE 9.2 mph - N/A Snow Light Snow
7:54 AM 21.2 °F 10.1 °F 15.8 °F 80% 29.80 in 5.0 mi SSE 10.4 mph - N/A Snow Light Snow
8:14 AM 21.2 °F 8.9 °F 15.8 °F 80% 29.78 in 4.0 mi SSE 12.7 mph - N/A Snow Light Snow
8:34 AM 21.2 °F 10.1 °F 17.6 °F 86% 29.78 in 4.0 mi SSE 10.4 mph - N/A Snow Light Snow
8:54 AM 21.2 °F 12.6 °F 17.6 °F 86% 29.81 in 5.0 mi SW 6.9 mph - 0.01 in Snow Light Snow
9:13 AM 21.2 °F 14.9 °F 17.6 °F 86% 29.80 in 2.0 mi SSW 4.6 mph - N/A Snow Light Snow
9:34 AM 23.0 °F 18.4 °F 19.4 °F 86% 29.79 in 2.0 mi South 3.5 mph - N/A Snow Light Snow
9:54 AM 23.0 °F 18.4 °F 19.4 °F 86% 29.79 in 4.0 mi South 3.5 mph - N/A Snow Light Snow
10:13 AM 23.0 °F 18.4 °F 19.4 °F 86% 29.79 in 5.0 mi South 3.5 mph - N/A   Overcast
10:34 AM 24.8 °F 20.5 °F 19.4 °F 80% 29.78 in 5.0 mi South 3.5 mph - N/A   Haze
10:54 AM 24.8 °F - 19.4 °F 80% 29.78 in 5.0 mi Calm Calm - N/A   Haze
11:13 AM 24.8 °F - 19.4 °F 80% 29.78 in 5.0 mi Calm Calm - N/A   Haze
11:34 AM 24.8 °F - 19.4 °F 80% 29.78 in 7.0 mi Calm Calm - N/A   Overcast
11:54 AM 26.6 °F 19.1 °F 21.2 °F 80% 29.77 in 7.0 mi SSW 6.9 mph - N/A   Overcast
12:13 PM 26.6 °F 16.8 °F 21.2 °F 80% 29.76 in 7.0 mi SSW 10.4 mph - N/A   Overcast
12:34 PM 28.4 °F 19.1 °F 21.2 °F 74% 29.75 in 7.0 mi SSW 10.4 mph - N/A   Overcast
12:54 PM 28.4 °F 20.4 °F 21.2 °F 74% 29.75 in 7.0 mi SW 8.1 mph - N/A   Overcast
1:14 PM 28.4 °F 21.2 °F 21.2 °F 74% 29.74 in 5.0 mi SSW 6.9 mph - N/A   Haze
1:34 PM 28.4 °F 19.7 °F 21.2 °F 74% 29.73 in 5.0 mi SSW 9.2 mph - N/A   Haze
1:54 PM 28.4 °F 20.4 °F 21.2 °F 74% 29.74 in 5.0 mi SSW 8.1 mph - N/A   Haze
2:14 PM 28.4 °F 21.2 °F 21.2 °F 74% 29.74 in 5.0 mi SW 6.9 mph - N/A   Haze
2:34 PM 28.4 °F 19.7 °F 21.2 °F 74% 29.72 in 5.0 mi SW 9.2 mph - N/A   Haze
2:54 PM 28.4 °F 22.2 °F 23.0 °F 80% 29.73 in 5.0 mi SSW 5.8 mph - N/A   Haze
3:14 PM 28.4 °F 20.4 °F 23.0 °F 80% 29.73 in 5.0 mi SW 8.1 mph - N/A   Haze
3:34 PM 28.4 °F 22.2 °F 23.0 °F 80% 29.72 in 5.0 mi SSW 5.8 mph - N/A   Haze
3:53 PM 28.4 °F 20.4 °F 23.0 °F 80% 29.72 in 5.0 mi SSW 8.1 mph - N/A   Haze
4:14 PM 28.4 °F 21.2 °F 23.0 °F 80% 29.74 in 5.0 mi WSW 6.9 mph - N/A   Haze
4:34 PM 28.4 °F 24.6 °F 23.0 °F 80% 29.73 in 4.0 mi SW 3.5 mph - N/A   Haze
4:53 PM 28.4 °F 23.3 °F 24.8 °F 86% 29.73 in 4.0 mi WSW 4.6 mph - N/A   Haze
5:14 PM 28.4 °F - 24.8 °F 86% 29.74 in 3.0 mi Calm Calm - N/A   Haze
5:34 PM 28.4 °F - 24.8 °F 86% 29.73 in 3.0 mi Calm Calm - N/A   Overcast
5:53 PM 26.6 °F - 24.8 °F 93% 29.72 in 1.5 mi Calm Calm - N/A Snow Light Snow
6:14 PM 26.6 °F 21.2 °F 23.0 °F 86% 29.73 in 1.0 mi North 4.6 mph - N/A Snow Snow
6:34 PM 26.6 °F 20.0 °F 21.2 °F 80% 29.72 in 1.2 mi NE 5.8 mph - 0.01 in Snow Light Snow
6:54 PM 24.8 °F 15.3 °F 21.2 °F 86% 29.71 in 1.2 mi ENE 9.2 mph - 0.02 in Snow Light Snow
7:14 PM 24.8 °F 14.6 °F 19.4 °F 80% 29.71 in 1.2 mi NE 10.4 mph - N/A Snow Light Snow
7:34 PM 24.8 °F 16.1 °F 19.4 °F 80% 29.71 in 1.2 mi NE 8.1 mph - N/A Snow Light Snow
7:54 PM 24.8 °F 16.9 °F 19.4 °F 80% 29.70 in 1.5 mi ENE 6.9 mph - N/A Snow Light Snow
8:14 PM 24.8 °F 16.9 °F 21.2 °F 86% 29.70 in 0.8 mi ENE 6.9 mph - N/A Snow Snow
8:33 PM 24.8 °F 16.1 °F 21.2 °F 86% 29.70 in 0.8 mi ENE 8.1 mph - N/A Snow Snow
8:54 PM 24.8 °F 14.6 °F 21.2 °F 86% 29.70 in 0.8 mi ENE 10.4 mph - N/A Snow Snow
9:14 PM 24.8 °F 16.1 °F 19.4 °F 80% 29.71 in 0.8 mi ENE 8.1 mph - N/A Snow Snow
9:33 PM 24.8 °F 17.9 °F 19.4 °F 80% 29.72 in 1.0 mi NE 5.8 mph - N/A Snow Light Snow
9:54 PM 24.8 °F 19.1 °F 19.4 °F 80% 29.72 in 1.0 mi NE 4.6 mph - N/A Snow Snow
10:14 PM 24.8 °F 16.9 °F 19.4 °F 80% 29.71 in 1.5 mi NE 6.9 mph - N/A Snow Light Snow
10:34 PM 24.8 °F 19.1 °F 19.4 °F 80% 29.71 in 1.5 mi NE 4.6 mph - 0.02 in Snow Light Snow
10:54 PM 24.8 °F 16.1 °F 19.4 °F 80% 29.70 in 1.5 mi NE 8.1 mph - 0.04 in Snow Light Snow
11:13 PM 24.8 °F 15.3 °F 19.4 °F 80% 29.69 in 1.5 mi NNE 9.2 mph - 0.02 in Snow Light Snow
11:34 PM 23.0 °F 13.1 °F 19.4 °F 86% 29.70 in 2.0 mi NNE 9.2 mph - 0.04 in Snow Light Snow
11:54 PM 23.0 °F 14.7 °F 19.4 °F 86% 29.69 in 3.0 mi NE 6.9 mph - 0.05 in Snow Light Snow